N1VL Weather Reports


Display with metric or nautical units.
time (UTC)temp
F
wind
direction
speed
MPH
gust
MPH
rain 1hr
in
rain 24hr
in
rain mn
in
humidity
%
barometer
mb
20260504081823 55 33 1.0 4.0 0.00 0.00 0.00 49 1012.2
20260504080902 55 22 3.0 8.0 0.00 0.00 0.00 46 1012.3
20260504050002 62 24 5.0 8.0 0.00 0.00 0.00 32 1011.8
20260504045402 61 16 6.0 8.0 0.00 0.00 0.00 31 1011.9
20260504044502 60 17 4.0 8.0 0.00 0.00 0.00 31 1011.9
20260504043602 60 30 4.0 7.0 0.00 0.00 0.00 32 1011.9
20260504042702 60 18 1.0 5.0 0.00 0.00 0.00 35 1011.9
20260504041802 61 139 2.0 5.0 0.00 0.00 0.00 32 1011.9
20260504040902 62 218 1.0 4.0 0.00 0.00 0.00 31 1011.9
20260504040002 62 238 0.0 5.0 0.00 0.00 0.00 30 1011.8
20260504035402 63 264 2.0 8.0 0.00 0.00 0.00 30 1011.8
20260504034502 64 278 5.0 8.0 0.00 0.00 0.00 29 1011.8
20260504033623 65 277 6.0 9.0 0.00 0.00 0.00 28 1011.7
20260504032702 65 268 6.0 9.0 0.00 0.00 0.00 27 1011.7
20260504031802 66 262 6.0 9.0 0.00 0.00 0.00 27 1011.6
20260504030902 66 263 5.0 8.0 0.00 0.00 0.00 26 1011.6
20260504030002 67 260 5.0 8.0 0.00 0.00 0.00 25 1011.6
20260504025402 67 257 6.0 9.0 0.00 0.00 0.00 25 1011.6
20260504024502 68 259 7.0 10.0 0.00 0.00 0.00 25 1011.6
20260504023602 68 256 7.0 10.0 0.00 0.00 0.00 25 1011.5
20260504022702 68 245 6.0 8.0 0.00 0.00 0.00 26 1011.5
20260504021802 68 254 5.0 8.0 0.00 0.00 0.00 24 1011.5
20260504020902 69 278 4.0 7.0 0.00 0.00 0.00 23 1011.4
20260504020002 69 294 6.0 10.0 0.00 0.00 0.00 23 1011.4
20260504015402 70 294 6.0 10.0 0.00 0.00 0.00 23 1011.4
20260504014523 71 298 7.0 11.0 0.00 0.00 0.00 22 1011.5
20260504013602 71 288 7.0 11.0 0.00 0.00 0.00 22 1011.5
20260504012702 71 277 8.0 11.0 0.00 0.00 0.00 22 1011.6
20260504011802 71 281 7.0 12.0 0.00 0.00 0.00 22 1011.6
20260504010902 72 239 5.0 8.0 0.00 0.00 0.00 20 1011.7
20260504010002 72 202 6.0 9.0 0.00 0.00 0.00 21 1011.9
20260504005402 73 196 5.0 9.0 0.00 0.00 0.00 21 1011.9
20260504004502 73 174 6.0 11.0 0.00 0.00 0.00 19 1012.1
20260504003602 74 176 4.0 9.0 0.00 0.00 0.00 19 1012.1
20260504002702 74 143 4.0 10.0 0.00 0.00 0.00 18 1012.1
20260504001802 75 139 6.0 10.0 0.00 0.00 0.00 19 1012.2
20260504000902 76 124 6.0 10.0 0.00 0.00 0.00 18 1012.2
20260504000024 77 134 4.0 9.0 0.00 0.00 0.00 18 1012.2
20260503235423 77 162 2.0 7.0 0.00 0.00 0.00 18 1012.2
20260503234502 77 174 2.0 6.0 0.00 0.00 0.00 15 1012.2
20260503233623 78 44 1.0 4.0 0.00 0.00 0.00 16 1012.2
20260503232723 77 44 1.0 4.0 0.00 0.00 0.00 16 1012.3
20260503231802 76 76 2.0 6.0 0.00 0.00 0.00 16 1012.3
20260503230923 76 107 3.0 6.0 0.00 0.00 0.00 16 1012.4
20260503230002 77 65 4.0 7.0 0.00 0.00 0.00 16 1012.6
20260503225402 77 43 4.0 7.0 0.00 0.00 0.00 16 1012.6
20260503224502 76 54 4.0 8.0 0.00 0.00 0.00 16 1012.7
20260503223623 76 44 3.0 7.0 0.00 0.00 0.00 16 1012.9
20260503222702 76 69 5.0 10.0 0.00 0.00 0.00 16 1013.0
20260503221802 76 47 1.0 7.0 0.00 0.00 0.00 16 1013.1
20260503220902 76 48 4.0 12.0 0.00 0.00 0.00 16 1013.3
20260503220002 76 74 6.0 12.0 0.00 0.00 0.00 16 1013.5
20260503215402 76 87 6.0 12.0 0.00 0.00 0.00 16 1013.6
20260503214502 77 61 5.0 13.0 0.00 0.00 0.00 15 1013.8
20260503213602 76 67 6.0 13.0 0.00 0.00 0.00 16 1014.0
20260503212702 76 71 7.0 10.0 0.00 0.00 0.00 15 1014.2
20260503211802 76 74 6.0 12.0 0.00 0.00 0.00 16 1014.4
20260503210923 75 77 7.0 10.0 0.00 0.00 0.00 17 1014.6
20260503210024 75 82 6.0 11.0 0.00 0.00 0.00 19 1014.8
20260503205423 75 67 6.0 11.0 0.00 0.00 0.00 20 1015.0
20260503204502 74 82 6.0 10.0 0.00 0.00 0.00 21 1015.1
20260503203602 74 111 5.0 9.0 0.00 0.00 0.00 20 1015.4
20260503202702 74 111 5.0 9.0 0.00 0.00 0.00 20 1015.5
20260503201823 74 106 4.0 8.0 0.00 0.00 0.00 19 1015.6
20260503200902 74 119 5.0 10.0 0.00 0.00 0.00 20 1015.7
20260503200003 74 113 7.0 10.0 0.00 0.00 0.00 20 1015.9
20260503195402 74 112 7.0 10.0 0.00 0.00 0.00 19 1016.0
20260503194502 74 102 6.0 10.0 0.00 0.00 0.00 20 1016.2
20260503193602 74 107 6.0 11.0 0.00 0.00 0.00 20 1016.3
20260503192702 74 98 6.0 11.0 0.00 0.00 0.00 21 1016.5
20260503191802 74 83 7.0 11.0 0.00 0.00 0.00 22 1016.6
20260503190902 73 105 6.0 11.0 0.00 0.00 0.00 22 1016.7
20260503190024 73 96 7.0 13.0 0.00 0.00 0.00 21 1016.8
20260503185402 73 84 5.0 12.0 0.00 0.00 0.00 21 1016.9
20260503184502 72 112 5.0 8.0 0.00 0.00 0.00 22 1017.1
20260503183602 71 101 5.0 9.0 0.00 0.00 0.00 24 1017.3
20260503182703 69 110 5.0 9.0 0.00 0.00 0.00 24 1017.5
20260503181802 69 104 5.0 9.0 0.00 0.00 0.00 25 1017.6
20260503180902 68 104 5.0 9.0 0.00 0.00 0.00 25 1017.6
20260503180002 68 120 5.0 9.0 0.00 0.00 0.00 25 1017.7
20260503175402 68 113 5.0 9.0 0.00 0.00 0.00 27 1017.8
20260503174502 67 106 5.0 8.0 0.00 0.00 0.00 27 1017.9
20260503173623 66 112 5.0 8.0 0.00 0.00 0.00 26 1018.0
20260503172702 67 102 5.0 8.0 0.00 0.00 0.00 27 1018.1
20260503171802 67 116 5.0 8.0 0.00 0.00 0.00 27 1018.2
20260503170923 67 115 4.0 9.0 0.00 0.00 0.00 29 1018.3
20260503150902 57 152 2.0 5.0 0.00 0.00 0.00 47 1019.0
20260503130902 45 128 1.0 2.0 0.00 0.00 0.00 58 1018.3